[[{"header":{"parameterUnit":"m.s-1","parameterCategory":2,"la1":30.2991,"la2":30.254,"lo1":-89.0895,"lo2":-89.0444,"dy":0.0017,"dx":0.0017,"nx":28,"ny":28,"refTime":"2024-12-04T03:00:00:Z","depth":"0","parameterNumber":2,"parameterNumberName":"U-component_of_CURRENTS"},"data":[0,0,0,0,0,0,0,0,0,0,0,0,0,0,0,0,0,0,0,0,0,0,0,0,0,0,0,0,0,0,0,0,0,0,0,0,0,0,0,0,0,0,0,0,0,0,0,0,0,0,0,0,0,0,0,0,0,0,0.4286,0.4287,0,0.427,0.427,0.4269,0.4218,0.4218,0.4217,0.4216,0.4193,0.4193,0.4193,0,0,0,0,0,0,0,0,0,0,0,0,0,0.4278,0.4278,0.4286,0.4287,0.4287,0.427,0.427,0.4269,0.4218,0.4218,0.4217,0.4216,0.4193,0.4193,0.4193,0,0,0,0,0,0,0,0,0,0,0,0,0,0.427,0.4278,0.4286,0.4262,0.426,0.427,0.427,0.4269,0.4219,0.4218,0.4216,0.4215,0.4193,0.4193,0.4193,0.4217,0,0,0.4194,0.4194,0,0,0,0,0,0,0,0,0.4271,0.427,0.4266,0.4264,0.4262,0.4249,0.4259,0.4253,0.4219,0.423,0.4216,0.4215,0.4215,0.4213,0.4207,0.4216,0.4215,0.4194,0.4194,0.4194,0.4194,0,0,0,0,0,0,0,0.4271,0.4271,0.4276,0.4266,0.4264,0.4254,0.4251,0.4257,0.4226,0.4229,0.4227,0.4231,0.4213,0.4207,0.4206,0.4215,0.4194,0.4194,0.4194,0.4194,0.4297,0.43,0,0,0,0,0,0,0.4282,0.4271,0.4277,0.4276,0.4268,0.4256,0.4252,0.4251,0.4226,0.4222,0.4232,0.4229,0.4207,0.4206,0.4205,0.4292,0.4194,0.4194,0.4194,0.4294,0.4298,0.4301,0,0,0,0,0,0,0.4282,0.4283,0.4277,0.4277,0.4276,0.4257,0.4256,0.4251,0.4253,0.4229,0.4224,0.4241,0.4206,0.4205,0.4225,0.4288,0.4194,0.4194,0.4291,0.4295,0.4299,0.4427,0,0,0,0,0,0,0.4282,0.4283,0.4293,0.4277,0.4276,0.4307,0.4257,0.4252,0.4259,0.4255,0.4235,0.4231,0.4205,0.4225,0.4225,0.4287,0.4194,0.4288,0.4293,0.4298,0.442,0.4435,0.4448,0,0,0,0,0,0.4282,0.4304,0.4293,0.4294,0.4288,0.4309,0.4308,0.4288,0.4261,0.4281,0.4261,0.4232,0.4257,0.4227,0.4227,0.429,0.4286,0.4292,0.4298,0.4413,0.4432,0.4448,0,0,0,0,0,0,0.4307,0.4301,0.4288,0.4307,0.4318,0.4302,0.4322,0.4302,0.43,0.4296,0.4257,0.4253,0.43,0.4276,0.4244,0.4335,0.4271,0.4277,0.436,0.4377,0.4391,0.444,0.4195,0,0,0,0,0,0.4319,0.4332,0.4328,0.4348,0.4358,0.4341,0.4348,0.4337,0.4331,0.4328,0.431,0.4305,0.4325,0.4333,0.4339,0.4384,0.439,0.4427,0.4442,0.4454,0.4495,0.4561,0.4586,0.432,0.432,0.432,0,0,0.433,0.4335,0.4339,0.4355,0.4358,0.4395,0.4342,0.4368,0.44,0.4329,0.4366,0.4354,0.4347,0.4399,0.4419,0.4387,0.4528,0.4461,0.4472,0.4507,0.457,0.4596,0.4619,0.4324,0.4323,0.4323,0,0,0.4375,0.4372,0.4401,0.4423,0.4446,0.4446,0.4459,0.4457,0.4459,0.4495,0.4459,0.4491,0.4498,0.4519,0.4528,0.4629,0.4601,0.4624,0.474,0.4803,0.4826,0.4846,0.4867,0.4888,0.4632,0.4632,0.4633,0,0.4391,0.4418,0.4417,0.4464,0.4485,0.4475,0.4518,0.4539,0.4541,0.4571,0.4529,0.4594,0.4571,0.4667,0.4694,0.4668,0.4679,0.4671,0.4824,0.4844,0.4862,0.4879,0.4901,0.4639,0.4638,0.4638,0.4637,0,0.4457,0.4486,0.4514,0.4563,0.4596,0.4631,0.4661,0.4694,0.4693,0.472,0.4805,0.4786,0.483,0.4829,0.479,0.4919,0.4875,0.4832,0.4782,0.4897,0.4906,0.4927,0.4649,0.4647,0.4645,0.4643,0,0,0.4456,0.4538,0.4545,0.4573,0.4642,0.4668,0.4756,0.4827,0.4895,0.4929,0.5019,0.5064,0.5065,0.5077,0.5042,0.5096,0.5209,0.5026,0.5026,0.5051,0.533,0.5242,0.5254,0.5192,0.5196,0.52,0.5276,0,0.4496,0.4576,0.4618,0.4699,0.4732,0.4778,0.4857,0.4936,0.4998,0.509,0.5138,0.5205,0.5159,0.5169,0.5236,0.5219,0.5273,0.5191,0.5213,0.5213,0.5125,0.528,0.5117,0.5167,0.5295,0.5299,0.5301,0,0.453,0.4575,0.4646,0.4738,0.4762,0.4822,0.4941,0.5018,0.5176,0.5231,0.5354,0.5375,0.5487,0.5397,0.5509,0.5458,0.5421,0.54,0.5401,0.5299,0.5166,0.5077,0.5199,0.5069,0.5332,0.5329,0.5327,0,0.4481,0.4589,0.4634,0.4666,0.4781,0.4832,0.4906,0.506,0.5143,0.5327,0.5397,0.5554,0.5597,0.5644,0.5618,0.5569,0.5711,0.5623,0.5518,0.5508,0.5368,0.5338,0.5375,0.5706,0.5706,0.5706,0.5706,0,0.4478,0.4508,0.4613,0.4633,0.4708,0.4809,0.4922,0.5032,0.5208,0.5323,0.5457,0.556,0.566,0.5735,0.5706,0.5704,0.579,0.5593,0.5554,0.5402,0.5376,0.5251,0.5184,0.5709,0.5708,0.5707,0.5707,0,0.4396,0.4464,0.4517,0.4639,0.4677,0.473,0.4898,0.4992,0.5165,0.5315,0.5368,0.5595,0.5702,0.5767,0.5838,0.5786,0.5641,0.5746,0.5547,0.5484,0.5239,0.5184,0.5054,0.489,0.5662,0.5661,0.566,0,0.4345,0.4369,0.4489,0.4524,0.4572,0.4671,0.4741,0.494,0.5045,0.5316,0.5373,0.5557,0.5662,0.5784,0.5758,0.5746,0.5569,0.5547,0.543,0.5262,0.5173,0.4996,0.4855,0.528,0.5276,0.5272,0.527,0,0.4255,0.4307,0.4361,0.4435,0.4502,0.4581,0.47,0.4773,0.5,0.5116,0.5306,0.5424,0.5586,0.5558,0.5569,0.5535,0.5315,0.5474,0.5372,0.4968,0.471,0.4518,0.5166,0.524,0.5243,0.5245,0.5247,0.5248,0.4181,0.4201,0.4286,0.4339,0.4407,0.4464,0.4466,0.4604,0.4718,0.4826,0.5087,0.5137,0.5301,0.5324,0.5283,0.5116,0.5069,0.4944,0.4918,0.4775,0.4545,0.512,0.51,0.5102,0.5104,0.5106,0.5107,0,0.4077,0.4125,0.4183,0.4233,0.4226,0.4317,0.44,0.4358,0.4379,0.454,0.4639,0.4721,0.474,0.4826,0.4794,0.4607,0.4413,0.4468,0.4203,0.4106,0.4697,0.461,0.4395,0.4395,0.4396,0.4396,0.4396,0.4396,0.403,0.4038,0.4069,0.4022,0.4041,0.3964,0.3955,0.3923,0.3975,0.3941,0.3938,0.4054,0.4359,0.4515,0.4378,0.427,0.3934,0.3776,0.3727,0.4182,0.4224,0.4264,0.4168,0.3865,0.3864,0.2987,0.298,0.2976]},{"header":{"parameterUnit":"m.s-1","parameterCategory":2,"la1":30.2991,"la2":30.254,"lo1":-89.0895,"lo2":-89.0444,"dy":0.0017,"dx":0.0017,"nx":28,"ny":28,"refTime":"2024-12-04T03:00:00:Z","depth":"0","parameterNumber":3,"parameterNumberName":"V-component_of_CURRENTS"},"data":[0,0,0,0,0,0,0,0,0,0,0,0,0,0,0,0,0,0,0,0,0,0,0,0,0,0,0,0,0,0,0,0,0,0,0,0,0,0,0,0,0,0,0,0,0,0,0,0,0,0,0,0,0,0,0,0,0,0,-0.0111,-0.0112,0,-0.0169,-0.017,-0.0171,-0.0216,-0.0216,-0.0216,-0.0216,-0.0317,-0.0319,-0.0322,0,0,0,0,0,0,0,0,0,0,0,0,0,-0.0098,-0.0098,-0.0111,-0.0112,-0.0112,-0.0169,-0.017,-0.0171,-0.0216,-0.0216,-0.0216,-0.0216,-0.0316,-0.0319,-0.0322,0,0,0,0,0,0,0,0,0,0,0,0,0,-0.0127,-0.0098,-0.0111,-0.0139,-0.0142,-0.0169,-0.017,-0.0172,-0.0216,-0.0216,-0.0216,-0.0217,-0.0315,-0.0319,-0.0322,-0.034,0,0,-0.0334,-0.0336,0,0,0,0,0,0,0,0,-0.0125,-0.0127,-0.0135,-0.0137,-0.0141,-0.0183,-0.0202,-0.0229,-0.0216,-0.019,-0.0216,-0.0217,-0.0274,-0.0282,-0.0295,-0.0345,-0.0349,-0.0334,-0.0337,-0.0338,-0.0339,0,0,0,0,0,0,0,-0.0123,-0.0126,-0.0137,-0.0135,-0.0139,-0.0169,-0.0174,-0.0208,-0.0233,-0.0193,-0.0195,-0.0198,-0.0277,-0.0291,-0.0298,-0.035,-0.0334,-0.0338,-0.034,-0.0341,-0.041,-0.0409,0,0,0,0,0,0,-0.0107,-0.0123,-0.0135,-0.0138,-0.0131,-0.0169,-0.0174,-0.0171,-0.0232,-0.024,-0.0198,-0.02,-0.0284,-0.0293,-0.0301,-0.0302,-0.0338,-0.0342,-0.0344,-0.041,-0.041,-0.0409,0,0,0,0,0,0,-0.0107,-0.0107,-0.0132,-0.0131,-0.0136,-0.0168,-0.0166,-0.0172,-0.0182,-0.0234,-0.0244,-0.0199,-0.0285,-0.0296,-0.032,-0.0307,-0.0343,-0.0347,-0.0411,-0.041,-0.0409,-0.0319,0,0,0,0,0,0,-0.0106,-0.0107,-0.0103,-0.0129,-0.0135,-0.0135,-0.0165,-0.0173,-0.0182,-0.0186,-0.0239,-0.0249,-0.0286,-0.0314,-0.0324,-0.0313,-0.035,-0.0411,-0.041,-0.041,-0.0323,-0.0316,-0.0309,0,0,0,0,0,-0.0105,-0.0089,-0.0103,-0.0104,-0.0128,-0.0134,-0.014,-0.0166,-0.0182,-0.0178,-0.0214,-0.0247,-0.0316,-0.0317,-0.0328,-0.0318,-0.0412,-0.0411,-0.041,-0.0326,-0.0317,-0.031,0,0,0,0,0,0,-0.0081,-0.0093,-0.0108,-0.0098,-0.0111,-0.014,-0.014,-0.0159,-0.0185,-0.019,-0.0242,-0.0253,-0.0271,-0.0307,-0.0307,-0.0337,-0.037,-0.0371,-0.0302,-0.0294,-0.0288,-0.0255,-0.0353,0,0,0,0,0,-0.0074,-0.0067,-0.0085,-0.0078,-0.0081,-0.0111,-0.0119,-0.0134,-0.0159,-0.0171,-0.0207,-0.0247,-0.0277,-0.0294,-0.0329,-0.0344,-0.0366,-0.0346,-0.0339,-0.0334,-0.0315,-0.0329,-0.0322,-0.0406,-0.0406,-0.0406,0,0,-0.0063,-0.0069,-0.0066,-0.0073,-0.0088,-0.0075,-0.0116,-0.0118,-0.0109,-0.0178,-0.0181,-0.0225,-0.0276,-0.0291,-0.0303,-0.0319,-0.0323,-0.0332,-0.0327,-0.0311,-0.0328,-0.0319,-0.0312,-0.0405,-0.0405,-0.0406,0,0,-0.0027,-0.0042,-0.0021,-0.0024,-0.0035,-0.0049,-0.0043,-0.0067,-0.0081,-0.0093,-0.0137,-0.0169,-0.0218,-0.0247,-0.027,-0.0249,-0.0287,-0.0262,-0.0202,-0.0216,-0.0209,-0.0202,-0.0223,-0.0219,-0.0259,-0.0259,-0.0259,0,-0.0013,0.0015,-0.0016,0.0007,0.0019,-0.0028,0.0007,-0.0016,-0.0045,-0.0041,-0.0082,-0.0139,-0.0196,-0.0199,-0.0198,-0.0232,-0.0243,-0.0226,-0.0205,-0.0199,-0.0194,-0.0217,-0.0214,-0.0254,-0.0255,-0.0255,-0.0256,0,0.0044,0.0066,0.008,0.0097,0.01,0.0122,0.0097,0.0089,0.0061,0.0047,0.0031,-0.0049,-0.0077,-0.0109,-0.0152,-0.0141,-0.0161,-0.0193,-0.0218,-0.018,-0.0207,-0.0205,-0.0248,-0.025,-0.0251,-0.0252,0,0,0.009,0.0119,0.0125,0.0156,0.0156,0.0171,0.018,0.0192,0.0226,0.0158,0.0193,0.0103,0.0064,0.0036,-0.0028,-0.0053,-0.0051,-0.01,-0.0103,-0.0108,-0.0075,-0.0103,-0.0104,-0.0069,-0.0068,-0.0068,-0.0109,0,0.0152,0.0224,0.0219,0.0289,0.0329,0.0297,0.032,0.0317,0.0307,0.0324,0.0232,0.023,0.0119,0.0108,0.0065,-0.0005,-0.0041,-0.0037,-0.0122,-0.0125,-0.0144,-0.0101,-0.0087,-0.0122,-0.0108,-0.0108,-0.0108,0,0.0221,0.0263,0.0345,0.0404,0.042,0.0446,0.0495,0.0515,0.0513,0.0504,0.0474,0.041,0.0355,0.0251,0.014,0.0156,0.0047,-0.0027,-0.003,-0.0081,-0.0149,-0.016,-0.0121,-0.0349,-0.0106,-0.0106,-0.0106,0,0.0286,0.0357,0.0431,0.045,0.0498,0.0525,0.0551,0.0573,0.0628,0.0628,0.066,0.0577,0.0557,0.0412,0.023,0.0197,0.0117,0.0047,-0.0087,-0.0091,-0.0108,-0.0115,-0.0286,-0.0038,-0.0038,-0.0038,-0.0038,0,0.0366,0.0426,0.0466,0.0507,0.0607,0.0606,0.0717,0.0725,0.0781,0.0884,0.0761,0.0821,0.0601,0.0515,0.0313,0.0137,0.0173,-0.0057,-0.0094,-0.0079,-0.0082,-0.0306,-0.0454,-0.004,-0.0039,-0.0039,-0.0039,0,0.0429,0.0455,0.0546,0.061,0.0641,0.0711,0.0829,0.0914,0.0937,0.1065,0.1066,0.1031,0.0924,0.0679,0.0479,0.0273,-0.0053,-0.0004,0.0025,-0.0008,-0.036,-0.0502,-0.0725,-0.0812,-0.0151,-0.0152,-0.0153,0,0.0471,0.0522,0.0624,0.0695,0.073,0.0838,0.0924,0.0986,0.11,0.1212,0.129,0.1225,0.1236,0.0917,0.0538,0.0189,-0.0061,-0.0048,-0.013,-0.0361,-0.0547,-0.0661,-0.0726,-0.0124,-0.0125,-0.0125,-0.0125,0,0.0555,0.0581,0.0656,0.08,0.0901,0.1038,0.1169,0.1286,0.1386,0.1513,0.1683,0.1705,0.1389,0.1093,0.0585,0.0314,-0.0215,-0.0066,-0.0305,-0.0534,-0.0667,-0.0772,-0.0129,-0.0128,-0.0127,-0.0127,-0.0127,-0.0127,0.0614,0.0683,0.078,0.0923,0.1053,0.123,0.137,0.1542,0.1763,0.1985,0.1991,0.209,0.1583,0.0919,0.0512,-0.0231,-0.0253,-0.0455,-0.0606,-0.0697,-0.0796,-0.0161,-0.0204,-0.0204,-0.0204,-0.0204,-0.0204,0,0.0699,0.0777,0.0906,0.1078,0.1244,0.1292,0.1535,0.1704,0.2,0.2216,0.2386,0.2202,0.157,0.0869,-0.0127,-0.0652,-0.0852,-0.0955,-0.112,-0.1156,-0.0581,-0.0595,-0.0722,-0.0722,-0.0721,-0.0721,-0.0721,-0.0721,0.0747,0.0878,0.0945,0.1218,0.1349,0.1577,0.1731,0.1998,0.2213,0.2515,0.2605,0.2619,0.2049,0.028,-0.0905,-0.1175,-0.1547,-0.166,-0.1826,-0.1457,-0.1422,-0.1389,-0.1435,-0.1736,-0.1737,-0.231,-0.2317,-0.2321]}],[{"header":{"parameterUnit":"m.s-1","parameterCategory":2,"la1":30.2991,"la2":30.254,"lo1":-89.0895,"lo2":-89.0444,"dy":0.0017,"dx":0.0017,"nx":28,"ny":28,"refTime":"2024-12-04T03:00:00:Z","depth":"2","parameterNumber":2,"parameterNumberName":"U-component_of_CURRENTS"},"data":[0,0,0,0,0,0,0,0,0,0,0,0,0,0,0,0,0,0,0,0,0,0,0,0,0,0,0,0,0,0,0,0,0,0,0,0,0,0,0,0,0,0,0,0,0,0,0,0,0,0,0,0,0,0,0,0,0,0,0.3315,0.3315,0,0.3353,0.3354,0.3354,0.3352,0.3352,0.3352,0.3352,0.3372,0.3373,0.3374,0,0,0,0,0,0,0,0,0,0,0,0,0,0.3259,0.326,0.3315,0.3315,0.3316,0.3353,0.3354,0.3354,0.3352,0.3352,0.3352,0.3352,0.3372,0.3373,0.3374,0,0,0,0,0,0,0,0,0,0,0,0,0,0.3286,0.326,0.3314,0.3322,0.3324,0.3353,0.3354,0.3354,0.3352,0.3352,0.3352,0.3351,0.3372,0.3373,0.3374,0.3388,0,0,0.3377,0.3378,0,0,0,0,0,0,0,0,0.3284,0.3287,0.332,0.3322,0.3324,0.3351,0.3342,0.3366,0.3353,0.3338,0.3352,0.3351,0.3366,0.3367,0.3371,0.3389,0.339,0.3377,0.3378,0.3379,0.3379,0,0,0,0,0,0,0,0.3282,0.3286,0.3327,0.3321,0.3323,0.3331,0.3334,0.3346,0.335,0.3339,0.334,0.335,0.3366,0.337,0.3371,0.339,0.3377,0.3378,0.3379,0.338,0.3494,0.3497,0,0,0,0,0,0,0.3284,0.3284,0.3325,0.3328,0.3306,0.3333,0.3336,0.334,0.3351,0.3353,0.335,0.335,0.3368,0.337,0.3372,0.3454,0.3379,0.338,0.338,0.3492,0.3495,0.3498,0,0,0,0,0,0,0.3282,0.3287,0.3324,0.331,0.3316,0.3334,0.3338,0.3341,0.3362,0.336,0.3361,0.3372,0.3368,0.337,0.3407,0.3452,0.338,0.3381,0.3489,0.3493,0.3496,0.3577,0,0,0,0,0,0,0.328,0.3286,0.3295,0.331,0.3317,0.3357,0.3339,0.3342,0.3369,0.337,0.3379,0.3379,0.3368,0.3405,0.3408,0.3452,0.3382,0.3486,0.3491,0.3495,0.3571,0.3582,0.3592,0,0,0,0,0,0.3278,0.3293,0.3295,0.3301,0.3327,0.3359,0.3363,0.3372,0.3371,0.3389,0.3399,0.338,0.3436,0.3408,0.3411,0.3457,0.3484,0.349,0.3495,0.3566,0.358,0.3592,0,0,0,0,0,0,0.3268,0.3295,0.3298,0.3318,0.3344,0.336,0.3381,0.3387,0.3409,0.3414,0.3405,0.3407,0.3458,0.3449,0.3419,0.3505,0.3459,0.3465,0.3513,0.3526,0.3536,0.3549,0.3383,0,0,0,0,0,0.3272,0.3297,0.3318,0.3339,0.3353,0.3371,0.3388,0.3397,0.3417,0.3426,0.3435,0.3452,0.348,0.3495,0.3511,0.3555,0.3569,0.359,0.3601,0.3609,0.3624,0.3697,0.3716,0.3515,0.3515,0.3515,0,0,0.3275,0.3295,0.3308,0.334,0.3359,0.3392,0.338,0.3416,0.3449,0.3426,0.3475,0.3489,0.3501,0.3552,0.3574,0.3551,0.3673,0.3616,0.3624,0.3633,0.3705,0.3724,0.3742,0.3519,0.3518,0.3517,0,0,0.3294,0.3312,0.3337,0.3366,0.3406,0.3422,0.3439,0.3469,0.3488,0.3536,0.3535,0.358,0.3611,0.3636,0.3651,0.3733,0.3726,0.374,0.3805,0.3877,0.3894,0.3909,0.3944,0.3962,0.3746,0.3746,0.3747,0,0.3298,0.3327,0.335,0.3385,0.3414,0.3439,0.3473,0.3504,0.3545,0.3578,0.3563,0.3654,0.3655,0.3737,0.3763,0.3758,0.3786,0.3752,0.3891,0.3907,0.3921,0.3953,0.3972,0.3751,0.375,0.375,0.3749,0,0.3327,0.3363,0.3385,0.3437,0.3472,0.3511,0.3553,0.3597,0.3626,0.3661,0.3748,0.3764,0.3822,0.3833,0.382,0.3929,0.3912,0.3895,0.3856,0.3946,0.3974,0.3992,0.3757,0.3756,0.3754,0.3753,0,0,0.3308,0.3388,0.3399,0.343,0.3503,0.3531,0.3605,0.3677,0.3738,0.3791,0.3872,0.393,0.3956,0.3976,0.3979,0.4034,0.4146,0.4013,0.4014,0.4043,0.4294,0.4219,0.4231,0.4161,0.4165,0.4168,0.427,0,0.3324,0.3384,0.343,0.3501,0.3531,0.3596,0.3663,0.3739,0.3804,0.3891,0.3948,0.4024,0.4007,0.4043,0.4106,0.4136,0.4199,0.4119,0.4207,0.4209,0.4129,0.4252,0.391,0.3969,0.4287,0.429,0.4292,0,0.3331,0.3372,0.343,0.3528,0.355,0.3603,0.3719,0.3787,0.3922,0.3984,0.4089,0.4128,0.4234,0.4194,0.4327,0.4281,0.4305,0.4319,0.4323,0.4239,0.4169,0.3933,0.3989,0.4321,0.4319,0.4317,0.4315,0,0.3279,0.3375,0.3418,0.345,0.3561,0.3612,0.3683,0.3814,0.3896,0.405,0.4124,0.4253,0.432,0.4392,0.4435,0.4396,0.4562,0.4505,0.4464,0.4457,0.4176,0.4139,0.4614,0.4614,0.4613,0.4613,0.4613,0,0.3266,0.3304,0.3398,0.3422,0.3496,0.3586,0.3692,0.3792,0.3948,0.4043,0.4169,0.4258,0.4378,0.4474,0.4495,0.455,0.4625,0.4508,0.45,0.4193,0.4158,0.4464,0.4445,0.4617,0.4616,0.4615,0.4615,0,0.319,0.3261,0.3308,0.3421,0.347,0.3515,0.369,0.3758,0.3928,0.4055,0.4109,0.4304,0.4427,0.4526,0.4644,0.4619,0.4671,0.4668,0.4288,0.4235,0.4494,0.4479,0.4628,0.4627,0.4626,0.4625,0.4624,0,0.3152,0.3167,0.3277,0.3312,0.3363,0.3463,0.353,0.3725,0.3801,0.4056,0.4092,0.4291,0.4389,0.4562,0.4566,0.4621,0.4685,0.4313,0.4178,0.453,0.4507,0.4493,0.4479,0.3826,0.3819,0.3813,0.3809,0,0.307,0.3108,0.3149,0.3219,0.3285,0.3352,0.3464,0.3531,0.3737,0.3854,0.4008,0.4124,0.4315,0.4234,0.4334,0.4307,0.4276,0.4194,0.469,0.3884,0.3785,0.3759,0.3769,0.3756,0.3761,0.3765,0.3768,0.377,0.3004,0.3001,0.3065,0.3111,0.3181,0.3205,0.3211,0.3328,0.3434,0.3558,0.3781,0.3841,0.3945,0.3928,0.3843,0.3777,0.4059,0.3859,0.3872,0.3893,0.3791,0.3696,0.363,0.3634,0.3638,0.3641,0.3644,0,0.2906,0.292,0.2956,0.299,0.2977,0.3078,0.313,0.3094,0.3118,0.3292,0.3409,0.3226,0.3229,0.3323,0.3156,0.3187,0.3111,0.3046,0.2897,0.2955,0.3006,0.2851,0.2444,0.244,0.2436,0.2432,0,0,0.2862,0.2845,0.2846,0.278,0.28,0.2732,0.272,0.2697,0.2764,0.2764,0.279,0.3087,0.3242,0.2787,0.2757,0.256,0.2723,0.2467,0.3442,0.3326,0.337,0.3507,0.3341,0,0,0,0,0]},{"header":{"parameterUnit":"m.s-1","parameterCategory":2,"la1":30.2991,"la2":30.254,"lo1":-89.0895,"lo2":-89.0444,"dy":0.0017,"dx":0.0017,"nx":28,"ny":28,"refTime":"2024-12-04T03:00:00:Z","depth":"2","parameterNumber":3,"parameterNumberName":"V-component_of_CURRENTS"},"data":[0,0,0,0,0,0,0,0,0,0,0,0,0,0,0,0,0,0,0,0,0,0,0,0,0,0,0,0,0,0,0,0,0,0,0,0,0,0,0,0,0,0,0,0,0,0,0,0,0,0,0,0,0,0,0,0,0,0,0.0131,0.013,0,0.0067,0.0066,0.0065,0.0019,0.0018,0.0018,0.0018,-0.0072,-0.0074,-0.0076,0,0,0,0,0,0,0,0,0,0,0,0,0,0.0151,0.0151,0.0131,0.013,0.0129,0.0067,0.0066,0.0065,0.0019,0.0018,0.0018,0.0018,-0.0071,-0.0074,-0.0076,0,0,0,0,0,0,0,0,0,0,0,0,0,0.0119,0.0151,0.0131,0.01,0.0096,0.0067,0.0066,0.0064,0.0019,0.0018,0.0018,0.0018,-0.007,-0.0074,-0.0077,-0.0089,0,0,-0.0087,-0.0088,0,0,0,0,0,0,0,0,0.0121,0.0118,0.0105,0.0102,0.0098,0.0051,0.004,0.0012,0.0019,0.0047,0.0018,0.0017,-0.0032,-0.0038,-0.0051,-0.0093,-0.0097,-0.0087,-0.0089,-0.009,-0.0091,0,0,0,0,0,0,0,0.0123,0.012,0.0104,0.0104,0.01,0.0068,0.0063,0.0034,0.0009,0.0044,0.0041,0.0036,-0.0034,-0.0048,-0.0054,-0.0098,-0.0087,-0.009,-0.0092,-0.0093,-0.0145,-0.0144,0,0,0,0,0,0,0.0138,0.0123,0.0106,0.0102,0.011,0.0068,0.0063,0.0066,0.001,0.0001,0.0037,0.0034,-0.0042,-0.005,-0.0057,-0.0053,-0.009,-0.0093,-0.0095,-0.0146,-0.0145,-0.0144,0,0,0,0,0,0,0.0139,0.0137,0.0109,0.0111,0.0106,0.0069,0.0072,0.0065,0.0054,0.0004,-0.0005,0.0034,-0.0043,-0.0052,-0.0074,-0.0058,-0.0095,-0.0098,-0.0146,-0.0145,-0.0145,-0.0059,0,0,0,0,0,0,0.014,0.0138,0.0142,0.0113,0.0106,0.0104,0.0072,0.0064,0.0052,0.0048,-0.0001,-0.001,-0.0044,-0.0068,-0.0077,-0.0063,-0.01,-0.0147,-0.0146,-0.0145,-0.0062,-0.0055,-0.0049,0,0,0,0,0,0.0141,0.0157,0.0143,0.014,0.0114,0.0105,0.0099,0.0069,0.0052,0.0056,0.0022,-0.0008,-0.0068,-0.007,-0.008,-0.0067,-0.0147,-0.0146,-0.0145,-0.0065,-0.0057,-0.0049,0,0,0,0,0,0,0.0168,0.0153,0.0137,0.0147,0.013,0.0098,0.0097,0.0076,0.0051,0.0046,-0.0002,-0.0013,-0.0028,-0.0059,-0.006,-0.008,-0.0112,-0.0113,-0.0049,-0.0041,-0.0034,-0.0009,-0.0103,0,0,0,0,0,0.0177,0.0184,0.0161,0.0168,0.0163,0.013,0.012,0.0103,0.0078,0.0066,0.0031,-0.0005,-0.0031,-0.0044,-0.0075,-0.0084,-0.012,-0.0082,-0.0075,-0.0069,-0.0056,-0.0098,-0.0094,-0.014,-0.014,-0.014,0,0,0.0187,0.018,0.0183,0.0174,0.0156,0.0167,0.0123,0.0119,0.0126,0.006,0.0057,0.0015,-0.0029,-0.0039,-0.0048,-0.0062,-0.0076,-0.0068,-0.0062,-0.0052,-0.0096,-0.0092,-0.0088,-0.0139,-0.014,-0.014,0,0,0.0224,0.0209,0.0231,0.0225,0.0211,0.0194,0.0198,0.017,0.0155,0.0144,0.01,0.0072,0.003,0.0005,-0.0014,0.0011,-0.0042,-0.0001,0.0057,0.0016,0.002,0.0023,-0.0019,-0.002,0.0006,0.0006,0.0007,0,0.0237,0.0264,0.0234,0.0257,0.0263,0.0215,0.0245,0.0224,0.0192,0.019,0.0155,0.0098,0.0053,0.0049,0.0055,0.0027,-0.0005,0.0032,0.0026,0.0028,0.0029,-0.0014,-0.0017,0.0011,0.001,0.001,0.0009,0,0.0294,0.0313,0.0327,0.0342,0.0344,0.036,0.0335,0.0325,0.0296,0.0278,0.0257,0.0189,0.016,0.0137,0.0102,0.0097,0.0068,0.0037,0.001,0.004,-0.0009,-0.0013,0.0017,0.0015,0.0014,0.0013,0,0,0.0334,0.0364,0.0368,0.0398,0.0394,0.0408,0.0413,0.0418,0.0441,0.0379,0.0395,0.0328,0.0288,0.0264,0.0208,0.0169,0.014,0.0116,0.0112,0.0082,0.0051,0.0021,0.0012,0.0108,0.0108,0.0108,0.0013,0,0.039,0.0459,0.0454,0.0519,0.0556,0.0522,0.0542,0.0535,0.0515,0.0515,0.0431,0.0424,0.0339,0.0328,0.0273,0.0179,0.0132,0.0168,0.002,0.0016,-0.0009,0.0008,0.0032,-0.0051,0.0008,0.0007,0.0007,0,0.0453,0.0493,0.0568,0.0625,0.0638,0.0664,0.0696,0.0713,0.0691,0.0675,0.0637,0.0572,0.0506,0.0424,0.0274,0.0301,0.0188,0.0101,0.0095,0.0037,-0.0022,-0.0073,-0.0062,-0.0002,-0.0001,-0.0,0.0,0,0.0511,0.0579,0.0645,0.0663,0.0709,0.0732,0.0757,0.0762,0.0806,0.0783,0.0799,0.07,0.066,0.0504,0.0312,0.0296,0.0138,0.0091,-0.0046,-0.005,-0.0073,-0.0078,-0.0017,-0.0017,-0.0017,-0.0017,-0.0016,0,0.0581,0.0636,0.0679,0.0717,0.081,0.081,0.0906,0.0908,0.0938,0.1008,0.0893,0.091,0.0679,0.0553,0.036,0.015,0.017,-0.0029,-0.0072,-0.0043,-0.0044,-0.0037,-0.0038,-0.002,-0.0019,-0.0019,-0.0018,0,0.0639,0.0661,0.0749,0.0811,0.0841,0.0909,0.1016,0.1089,0.1093,0.117,0.1167,0.1075,0.0915,0.0668,0.0421,0.0231,0.002,-0.0063,-0.0014,-0.005,-0.0156,-0.0152,-0.0222,-0.0224,-0.0226,-0.0227,-0.0228,0,0.0677,0.0725,0.0826,0.0891,0.0924,0.1028,0.111,0.1162,0.1252,0.1279,0.1326,0.1196,0.1131,0.0752,0.0399,0.0058,0.0016,-0.0149,-0.0182,-0.014,-0.0175,-0.0169,-0.0162,-0.0185,-0.0185,-0.0186,-0.0186,0,0.0752,0.0779,0.0854,0.0988,0.1085,0.1216,0.1333,0.1428,0.1489,0.1544,0.1591,0.1537,0.1175,0.0843,0.0369,0.0133,-0.0096,-0.017,-0.0134,-0.0131,-0.0111,-0.0144,-0.0137,-0.019,-0.019,-0.019,-0.0189,-0.0189,0.0808,0.0874,0.0969,0.1101,0.1222,0.1378,0.1498,0.1623,0.1766,0.1848,0.1792,0.1712,0.1322,0.0726,0.0309,-0.0135,-0.0112,-0.027,-0.0266,-0.0262,-0.0235,-0.0218,-0.0313,-0.0313,-0.0313,-0.0314,-0.0314,0,0.0881,0.0955,0.1079,0.1234,0.1375,0.143,0.1633,0.1747,0.1915,0.1976,0.2004,0.163,0.1244,0.0788,0.0132,-0.0253,-0.0284,-0.0379,-0.0327,-0.032,-0.0314,-0.0289,-0.0382,-0.0383,-0.0384,-0.0385,0,0,0.0921,0.1043,0.1104,0.1332,0.1449,0.1645,0.1767,0.1918,0.2012,0.208,0.2034,0.194,0.1384,0.0905,0.0374,-0.0004,-0.0075,-0.0085,0.0011,0.0142,0.0153,-0.0211,-0.0159,0,0,0,0,0]}],[{"header":{"parameterUnit":"m.s-1","parameterCategory":2,"la1":30.2991,"la2":30.254,"lo1":-89.0895,"lo2":-89.0444,"dy":0.0017,"dx":0.0017,"nx":28,"ny":28,"refTime":"2024-12-04T03:00:00:Z","depth":"4","parameterNumber":2,"parameterNumberName":"U-component_of_CURRENTS"},"data":[0,0,0,0,0,0,0,0,0,0,0,0,0,0,0,0,0,0,0,0,0,0,0,0,0,0,0,0,0,0,0,0,0,0,0,0,0,0,0,0,0,0,0,0,0,0,0,0,0,0,0,0,0,0,0,0,0,0,0.2072,0.2074,0,0.217,0.2171,0.2172,0.2249,0.225,0.2251,0.2252,0.2362,0.2364,0.2365,0,0,0,0,0,0,0,0,0,0,0,0,0,0.1965,0.1966,0.2072,0.2074,0.2075,0.217,0.2171,0.2172,0.2249,0.225,0.2251,0.2252,0.2361,0.2363,0.2366,0,0,0,0,0,0,0,0,0,0,0,0,0,0.2029,0.1966,0.2072,0.2127,0.2133,0.217,0.2171,0.2173,0.2249,0.225,0.2252,0.2253,0.236,0.2363,0.2366,0.2355,0,0,0.2375,0.2377,0,0,0,0,0,0,0,0,0.2026,0.2033,0.2117,0.2123,0.213,0.2201,0.2174,0.2235,0.2248,0.2202,0.2252,0.2254,0.2309,0.2317,0.2328,0.2361,0.2365,0.2376,0.2377,0.2379,0.2379,0,0,0,0,0,0,0,0.2021,0.2029,0.2109,0.2119,0.2126,0.2151,0.2161,0.2185,0.2245,0.2206,0.2213,0.2227,0.2313,0.2325,0.2332,0.2367,0.2375,0.2378,0.238,0.2381,0.2543,0.2546,0,0,0,0,0,0,0.2012,0.2025,0.2106,0.2112,0.2083,0.2152,0.2163,0.2175,0.2244,0.2257,0.2225,0.223,0.2319,0.2328,0.2336,0.2454,0.2379,0.2381,0.2383,0.2541,0.2544,0.2547,0,0,0,0,0,0,0.2009,0.2018,0.2102,0.2073,0.2085,0.2152,0.2164,0.2176,0.2237,0.2259,0.2272,0.228,0.2321,0.2331,0.2405,0.2454,0.2383,0.2386,0.2538,0.2542,0.2545,0.2608,0,0,0,0,0,0,0.2005,0.2016,0.2042,0.2072,0.2087,0.2153,0.2164,0.2177,0.2241,0.2249,0.2309,0.2318,0.2323,0.2401,0.2408,0.2457,0.2388,0.2535,0.254,0.2544,0.2603,0.2614,0.2623,0,0,0,0,0,0.2001,0.2024,0.2043,0.2054,0.2114,0.2155,0.2165,0.2215,0.2243,0.2274,0.2324,0.2319,0.2436,0.2405,0.2413,0.2464,0.2533,0.2538,0.2544,0.2599,0.2612,0.2623,0,0,0,0,0,0,0.1994,0.2035,0.2056,0.2093,0.2136,0.2169,0.2212,0.224,0.2303,0.2328,0.2347,0.2359,0.2443,0.2447,0.2412,0.2526,0.2485,0.2493,0.2524,0.2537,0.2546,0.2544,0.239,0,0,0,0,0,0.2002,0.2035,0.2073,0.2109,0.2135,0.2182,0.2215,0.2248,0.2296,0.2327,0.2369,0.2418,0.2463,0.2496,0.2532,0.259,0.2603,0.2631,0.2641,0.2649,0.2654,0.2726,0.2742,0.2565,0.2565,0.2565,0,0,0.201,0.204,0.206,0.2112,0.2153,0.2193,0.2207,0.227,0.2315,0.2327,0.2419,0.2457,0.2488,0.2558,0.2596,0.2574,0.2707,0.2656,0.2663,0.2664,0.2733,0.2751,0.2766,0.2569,0.2568,0.2568,0,0,0.2028,0.2072,0.2103,0.2142,0.2209,0.2236,0.2264,0.2325,0.2371,0.2448,0.2475,0.2544,0.2612,0.2644,0.2666,0.2752,0.2757,0.2774,0.2823,0.2893,0.2908,0.2921,0.2956,0.2972,0.2779,0.2779,0.2779,0,0.2044,0.2081,0.2121,0.216,0.2201,0.2259,0.2302,0.2351,0.2432,0.2478,0.2492,0.2623,0.2649,0.2732,0.2766,0.2774,0.2808,0.2771,0.2905,0.2918,0.2931,0.2964,0.298,0.2783,0.2783,0.2782,0.2782,0,0.2067,0.2119,0.2147,0.2213,0.2259,0.2312,0.2373,0.2441,0.2506,0.2554,0.267,0.2714,0.2794,0.2815,0.2817,0.2924,0.2917,0.2908,0.2869,0.2952,0.2982,0.2998,0.2788,0.2787,0.2786,0.2785,0,0,0.2046,0.2143,0.2159,0.2199,0.2295,0.2328,0.2419,0.2506,0.2581,0.2668,0.2763,0.2846,0.2893,0.2921,0.2946,0.3,0.311,0.3,0.3002,0.3025,0.3259,0.3053,0.305,0.3137,0.314,0.3143,0.3243,0,0.2061,0.213,0.2182,0.2264,0.2304,0.2389,0.2465,0.2557,0.2647,0.2754,0.2829,0.2931,0.2927,0.2987,0.3046,0.3101,0.3158,0.3083,0.3184,0.3186,0.2985,0.3063,0.3153,0.3254,0.3258,0.3261,0.3263,0,0.2058,0.211,0.2185,0.2291,0.2321,0.2387,0.2524,0.2602,0.2755,0.2834,0.2951,0.3015,0.3129,0.3108,0.3248,0.321,0.3247,0.3272,0.3276,0.307,0.3009,0.3158,0.3291,0.3289,0.3287,0.3285,0.3283,0,0.1995,0.2108,0.2169,0.2207,0.2336,0.2406,0.2492,0.264,0.2724,0.2904,0.2989,0.3123,0.3216,0.329,0.3354,0.3325,0.3486,0.3447,0.3292,0.3277,0.3404,0.3389,0.3546,0.3546,0.3546,0.3545,0.3545,0,0.1961,0.2017,0.2157,0.2189,0.2283,0.2391,0.2514,0.2623,0.2791,0.2891,0.3039,0.3125,0.3274,0.3373,0.3403,0.3394,0.3536,0.3308,0.3295,0.3427,0.3414,0.3415,0.3398,0.3549,0.3548,0.3547,0.3547,0,0.1874,0.1966,0.2044,0.2197,0.2254,0.2326,0.2514,0.2592,0.2778,0.2914,0.298,0.3174,0.3292,0.3401,0.3526,0.3439,0.346,0.3425,0.3565,0.3557,0.3188,0.3174,0.3239,0.3233,0.3227,0.3223,0.3219,0,0.1828,0.1863,0.2028,0.2078,0.2159,0.2288,0.2371,0.2568,0.2649,0.2907,0.2948,0.3142,0.3244,0.3253,0.3381,0.3423,0.339,0.3369,0.3258,0.3179,0.3161,0.3155,0.3149,0.3211,0.3209,0.3208,0.3206,0,0.1741,0.1821,0.1883,0.1991,0.2087,0.2168,0.2306,0.2351,0.257,0.276,0.2848,0.2918,0.3044,0.3122,0.3191,0.3212,0.3357,0.3312,0.3321,0.3217,0.3145,0.3131,0.3131,0.3188,0.3191,0.3192,0.3193,0,0.1683,0.1701,0.1798,0.1876,0.1981,0.2017,0.2106,0.2201,0.2308,0.2588,0.2611,0.282,0.3008,0.3015,0.3076,0.3084,0.3026,0.2911,0.294,0.2962,0.2825,0.269,0.259,0,0,0,0,0,0.1614,0.1618,0.1675,0.174,0.1833,0.1895,0.2044,0.2137,0.2351,0.2345,0.2473,0.2575,0.2666,0.2776,0.2729,0.2954,0.3038,0.2885,0.292,0.3085,0.3106,0.297,0,0,0,0,0,0,0.1563,0.1612,0.1624,0.1612,0.163,0.171,0.1794,0.1935,0.1943,0.2173,0.2238,0.2412,0.2543,0.2668,0.2678,0.2711,0.2678,0.3021,0.3014,0.3072,0.3092,0.3109,0.2977,0,0,0,0,0]},{"header":{"parameterUnit":"m.s-1","parameterCategory":2,"la1":30.2991,"la2":30.254,"lo1":-89.0895,"lo2":-89.0444,"dy":0.0017,"dx":0.0017,"nx":28,"ny":28,"refTime":"2024-12-04T03:00:00:Z","depth":"4","parameterNumber":3,"parameterNumberName":"V-component_of_CURRENTS"},"data":[0,0,0,0,0,0,0,0,0,0,0,0,0,0,0,0,0,0,0,0,0,0,0,0,0,0,0,0,0,0,0,0,0,0,0,0,0,0,0,0,0,0,0,0,0,0,0,0,0,0,0,0,0,0,0,0,0,0,0.0156,0.0155,0,0.0114,0.0113,0.0113,0.0082,0.0082,0.0082,0.0082,0.0017,0.0016,0.0014,0,0,0,0,0,0,0,0,0,0,0,0,0,0.0165,0.0165,0.0156,0.0155,0.0155,0.0114,0.0113,0.0113,0.0082,0.0082,0.0082,0.0081,0.0018,0.0016,0.0014,0,0,0,0,0,0,0,0,0,0,0,0,0,0.0145,0.0165,0.0156,0.0135,0.0133,0.0114,0.0113,0.0112,0.0082,0.0082,0.0082,0.0081,0.0018,0.0016,0.0014,0.0005,0,0,0.0007,0.0006,0,0,0,0,0,0,0,0,0.0146,0.0145,0.0139,0.0137,0.0134,0.0104,0.0093,0.0076,0.0082,0.0101,0.0082,0.0081,0.0045,0.004,0.0032,0.0002,-0.0,0.0007,0.0005,0.0004,0.0004,0,0,0,0,0,0,0,0.0148,0.0146,0.0138,0.0138,0.0136,0.0113,0.011,0.0089,0.0074,0.0099,0.0097,0.0094,0.0043,0.0035,0.003,-0.0001,0.0007,0.0005,0.0003,0.0002,-0.0031,-0.003,0,0,0,0,0,0,0.0157,0.0148,0.014,0.0137,0.014,0.0113,0.011,0.0113,0.0074,0.0069,0.0094,0.0092,0.0039,0.0033,0.0028,0.0036,0.0004,0.0002,0.0001,-0.0031,-0.0031,-0.003,0,0,0,0,0,0,0.0158,0.0157,0.0141,0.0141,0.0138,0.0114,0.0117,0.0112,0.0107,0.0071,0.0064,0.0094,0.0038,0.0031,0.0018,0.0032,0.0001,-0.0001,-0.0032,-0.0031,-0.003,0.0038,0,0,0,0,0,0,0.0158,0.0158,0.0162,0.0143,0.0138,0.0139,0.0117,0.0112,0.0106,0.0103,0.0069,0.0062,0.0037,0.0021,0.0015,0.0028,-0.0003,-0.0033,-0.0032,-0.0031,0.0035,0.0041,0.0046,0,0,0,0,0,0.0159,0.0172,0.0163,0.0162,0.0146,0.014,0.0136,0.0116,0.0106,0.0109,0.0086,0.0064,0.0023,0.002,0.0013,0.0025,-0.0033,-0.0032,-0.0031,0.0032,0.0039,0.0045,0,0,0,0,0,0,0.0178,0.017,0.016,0.0169,0.0158,0.0135,0.0136,0.0122,0.0107,0.0104,0.0069,0.0061,0.0054,0.003,0.0028,0.0018,-0.0009,-0.0009,0.0042,0.0048,0.0054,0.0067,-0.0005,0,0,0,0,0,0.0185,0.0193,0.0177,0.0185,0.0182,0.016,0.0154,0.0143,0.0126,0.0118,0.0094,0.007,0.0052,0.0044,0.0021,0.0018,-0.002,0.002,0.0026,0.0031,0.0037,-0.0009,-0.0007,-0.0026,-0.0026,-0.0027,0,0,0.0193,0.019,0.0194,0.0189,0.0178,0.0188,0.0156,0.0155,0.0162,0.0114,0.0115,0.0086,0.0054,0.005,0.0045,0.0033,0.0017,0.0032,0.0037,0.004,-0.0008,-0.0006,-0.0004,-0.0026,-0.0026,-0.0026,0,0,0.022,0.0213,0.023,0.0228,0.0219,0.0209,0.0212,0.0194,0.0185,0.0181,0.0149,0.013,0.0104,0.0085,0.0072,0.0093,0.0045,0.0088,0.0129,0.0085,0.0086,0.0087,0.0042,0.0038,0.0093,0.0093,0.0093,0,0.023,0.0251,0.0233,0.025,0.0257,0.0225,0.0248,0.0234,0.0214,0.0213,0.0191,0.0151,0.0121,0.0116,0.0125,0.0106,0.0072,0.0109,0.0092,0.0092,0.0092,0.0045,0.004,0.0097,0.0096,0.0096,0.0096,0,0.027,0.0288,0.0299,0.0313,0.0316,0.033,0.0315,0.031,0.0293,0.0281,0.0266,0.0218,0.0198,0.0184,0.0161,0.015,0.0124,0.0102,0.0077,0.0098,0.0047,0.004,0.0102,0.01,0.0099,0.0099,0,0,0.0293,0.0323,0.0327,0.0352,0.0354,0.0366,0.0374,0.0378,0.0395,0.0354,0.0362,0.032,0.029,0.0273,0.0234,0.0195,0.0158,0.0156,0.0152,0.0114,0.0059,0.0045,0.0036,0.0133,0.0133,0.0132,0.0025,0,0.0332,0.0385,0.0387,0.044,0.0469,0.045,0.0468,0.0465,0.0451,0.0448,0.0387,0.0382,0.0326,0.032,0.027,0.0189,0.0144,0.0189,0.0042,0.0038,0.0026,0.0029,0.013,0.002,0.0018,0.0017,0.0016,0,0.0373,0.0407,0.0467,0.0517,0.0528,0.0554,0.0582,0.0596,0.0577,0.0566,0.0534,0.0484,0.0427,0.0372,0.0235,0.0267,0.0173,0.0099,0.0092,0.0052,0.0012,-0.0006,0.0003,0.0004,0.0005,0.0006,0.0007,0,0.0408,0.0466,0.0521,0.0537,0.0581,0.0606,0.063,0.0634,0.0666,0.0644,0.0653,0.0566,0.0531,0.0398,0.0243,0.024,0.008,0.0053,-0.0053,-0.0056,-0.0042,-0.0042,-0.005,-0.0049,-0.0049,-0.0049,-0.0049,0,0.045,0.0497,0.0546,0.0577,0.0655,0.0663,0.0741,0.0744,0.0764,0.081,0.0724,0.072,0.0536,0.042,0.0266,0.0088,0.0092,-0.0046,-0.0083,-0.0011,-0.0006,-0.0047,-0.0046,-0.0053,-0.0052,-0.0051,-0.0051,0,0.0481,0.0509,0.0583,0.0645,0.0676,0.0733,0.0829,0.0881,0.0886,0.0933,0.093,0.0836,0.0686,0.0488,0.027,0.0132,-0.0045,-0.0112,-0.0017,-0.0047,-0.016,-0.0154,-0.024,-0.0241,-0.0242,-0.0243,-0.0244,0,0.0501,0.0541,0.0639,0.0696,0.0732,0.0824,0.0893,0.0939,0.0997,0.1004,0.1023,0.0901,0.0809,0.0498,0.0279,-0.0023,-0.0068,-0.0171,-0.0172,-0.0152,-0.0179,-0.0171,-0.0163,-0.0246,-0.0246,-0.0247,-0.0247,0,0.0541,0.0575,0.0638,0.0755,0.0842,0.095,0.1044,0.1095,0.114,0.1144,0.1104,0.0938,0.0765,0.051,0.0275,0.0057,-0.0111,-0.0184,-0.0184,-0.0185,-0.0161,-0.0184,-0.0175,-0.0251,-0.025,-0.025,-0.025,0,0.0572,0.0622,0.0705,0.0811,0.0924,0.1032,0.1088,0.1147,0.12,0.1193,0.1176,0.0984,0.0873,0.0551,0.0336,0.0118,0.0055,-0.0029,-0.0038,-0.0036,0.0048,0.011,0.0075,0,0,0,0,0,0.06,0.0657,0.0755,0.0871,0.0985,0.1054,0.1168,0.121,0.1248,0.1231,0.1207,0.1045,0.0726,0.0594,0.0375,0.0298,0.0008,0.003,-0.0097,-0.0273,-0.0268,-0.0206,0,0,0,0,0,0,0.0616,0.0706,0.0754,0.0899,0.0984,0.1118,0.1194,0.1225,0.1217,0.1214,0.1059,0.0971,0.0672,0.0852,0.0365,0.0299,0.0183,-0.0116,-0.0121,-0.0276,-0.0271,-0.0268,-0.0202,0,0,0,0,0]}]]